Home   Weather   Chibougamau   Past weeks
Flag for Canada

Past Weather in Chibougamau, Quebec, Canada — Yesterday and Last 2 Weeks

Now
68 °F

Sunny.


Feels Like: 68 °F
Forecast: 68 / 44 °F
Wind: 5 mph from East

Location: Chibougamau-Chapais

Current Time: Jun 24, 2019 at 4:11:36 pm

Latest Report: Jun 24, 2019 at 3:00 pm


Visibility: 9 mi

Pressure: 29.93 "Hg

Humidity: 28%

Dew Point: 34 °F

Location of ChibougamauLocation

Past Weather in Chibougamau — Graph

°F

Chibougamau Temperature Yesterday

Maximum temperature yesterday: 70 °F (at 4:00 pm)
Minimum temperature yesterday: 54 °F (at 4:00 am)
Average temperature yesterday: 62 °F

High & Low Weather Summary for the Past Weeks

 TemperatureHumidityPressure
High88 °F (Jun 9, 4:00 pm)100% (Jun 11, 5:37 am)30.13 "Hg (Jun 11, 5:37 am)
Low39 °F (Jun 11, 10:12 am)24% (Jun 9, 5:00 pm)29.49 "Hg (Jun 15, 12:56 pm)
Average55 °F73%29.83 "Hg
* Reported Jun 9 2:00 pm — Jun 24 2:00 pm, Chibougamau. Weather by CustomWeather, © 2019

Note: Actual official high and low records may vary slightly from our data, if they occured in-between our weather recording intervals... More about our weather records

Advertising

Chibougamau Weather History for the Previous 24 Hours

Scroll right to see more
 ConditionsComfort  
Time TempWeatherWind HumidityBarometerVisibility
2:00 pm
Mon, Jun 24
66 °FSunny.6 mph30%29.94 "Hg9 mi
1:00 pm64 °FSunny.10 mph30%29.95 "Hg9 mi
12:00 pm63 °FSunny.7 mph32%29.96 "Hg9 mi
11:00 am59 °FSunny.5 mph36%29.98 "Hg9 mi
10:00 am59 °FSunny.7 mph39%29.98 "Hg9 mi
9:00 am57 °FSunny.10 mph44%29.98 "Hg9 mi
8:00 am55 °FSunny.8 mph47%29.98 "Hg9 mi
7:00 am52 °FSunny.5 mph62%29.98 "Hg9 mi
6:00 am48 °FSunny.2 mph66%29.96 "Hg9 mi
5:00 am43 °FSunny.5 mph81%29.95 "Hg9 mi
4:00 am43 °FClear.2 mph81%29.94 "Hg9 mi
3:00 am46 °FClear.3 mph71%29.93 "Hg9 mi
2:00 am48 °FClear.6 mph66%29.93 "Hg9 mi
1:00 am48 °FClear.2 mph66%29.93 "Hg9 mi
12:00 am52 °FClear.5 mph58%29.92 "Hg9 mi
11:00 pm
Sun, Jun 23
55 °FClear.7 mph47%29.91 "Hg9 mi
10:00 pm57 °FClear.6 mph51%29.92 "Hg9 mi
9:00 pm61 °FSunny.6 mph42%29.90 "Hg9 mi
8:00 pm66 °FSunny.10 mph32%29.89 "Hg9 mi
7:00 pm68 °FSunny.9 mph30%29.88 "Hg9 mi
6:00 pm68 °FSunny.12 mph28%29.88 "Hg9 mi
5:00 pm70 °FSunny.15 mph29%29.89 "Hg9 mi
4:00 pm70 °FSunny.9 mph31%29.90 "Hg9 mi
Weather by CustomWeather, © 2019

See weather overview